Location: Manchester NH
(43.0000°N, 71.5000°W)
Time: 18:08:13
(UTC-04:00)

OTV 5 (USA 277) - Visible Passes

Search period start: 17 October 2017 00:00
Search period end: 27 October 2017 00:00
Orbit: 404 x 417 km, 43.0° (Epoch: 07 September)

Date Brightness Start Highest point End Pass type
(mag) Time Alt. Az. Time Alt. Az. Time Alt. Az.
17 Oct ? 18:39:58 10° W 18:43:21 87° N 18:46:17 13° E visible
17 Oct ? 20:17:19 10° W 20:19:02 26° W 20:19:02 26° W visible
18 Oct ? 19:26:14 10° W 19:29:36 68° SSW 19:30:20 48° SE visible
19 Oct ? 18:35:09 10° W 18:38:32 81° S 18:41:42 11° ESE visible
19 Oct ? 20:12:39 10° W 20:14:27 23° WSW 20:14:27 23° WSW visible
20 Oct ? 19:21:28 10° W 19:24:40 40° SSW 19:25:53 28° SSE visible
21 Oct ? 18:30:21 10° W 18:33:39 53° SSW 18:36:57 10° ESE visible
21 Oct ? 20:08:32 10° WSW 20:10:11 15° SW 20:10:11 15° SW visible
22 Oct ? 19:16:59 10° W 19:19:36 21° SSW 19:21:50 12° SSE visible
23 Oct ? 18:25:41 10° W 18:28:40 29° SSW 18:31:38 10° SE visible
25 Oct ? 18:21:35 10° WSW 18:23:32 15° SSW 18:25:28 10° S visible
